loading
|

THOR ABLESTAR DEB, 122

Orbit data source: Space-Track

THOR ABLESTAR DEB, 122 is space debris in LEO originally from a launch on Thu, 29 Jun 1961 UTC launched from the Air Force Eastern Test Range (AFETR). Debris objects in space refer to the collection of defunct objects orbiting the Earth. Examples of debris include non-operational satellites, rocket bodies, and fragments generated from explosions, collisions, or faulty payload assembly.

Loading next visibility...
Loading greatness...
THOR ABLESTAR DEB details
Identifier
122, 1961-015G
Orbit
LEO
Last TLE update1 day ago
Origin
Flag of USUSAF SSD (US)
ManufacturerUnknown
Mission statusUnknown
MissionUnknown
Bus & MotorUnknown
MassUnknown
Launch date (UTC)
1961-06-29 (63 years ago)
Launch vehicleUnknown
Launch site
Air Force Eastern Test Range (AFETR)
Object type
Payload
Rocket body
Debris
Radar Cross SectionMedium (>0.1 m² and <1 m²)

Expand to show TLE details & history

TLE from 1 day ago
0 THOR ABLESTAR DEB
1 00122U 61015G   24250.47306541  .00023988  00000-0  29137-2 0  9995
2 00122  66.7454 256.4600 0055044 353.5686   6.4725 14.82399981297439
Epoch: 2024-09-06T11:21Z
Definitive object data (Epoch: 2024-09-06T11:21:12.851Z)
Latitude-0.00006°
Longitude100.11133°
Altitude585.634 km
Speed7.589 km/s
True Right ascension17h 05m 50s
True Declination0° 00' 00"
Sunlit
Object was in daylight at TLE epoch
Predictive object data (real-time)
Latitude39.79256°
Longitude117.30394°
Altitude602.298 km
Speed7.576 km/s
Apparent Right ascension20h 14m 38s
Apparent Declination2° 27' 16"
Sunlit
Object is in daylight
Predictive observer data (real-time)
Local Sidereal Time10:27:38
Azimuth43.912° NE
Elevation-37.833°
Doppler factor1
Orbital elements
Apogee658.61 km
Perigee581.568 km
Semi-major axis6,998.226 km
Eccentricity0.0055044
Inclination66.7454°
RAAN256.46°
Arg. of periapsis353.5686°
True anomaly6.54409°
Mean anomaly6.4725°
Eccentric anomaly6.50825°
Mean motion3.70733 °/min
BSTAR0.0029137
Period97.1 mins
No data available

THOR ABLESTAR DEB Visibility forecast

Observer location: 39.9160978°, -105.1181434

THOR ABLESTAR DEB is not visible in the next 10 days
Span
Click to sort rows by Start time (UTC) header in descending order
Start Az.
Max El. time (UTC)
Max El. Az.
Max El.
End time (UTC)
End Az.